This demonstration page uses our WeatherBlox Daily Observations layout. Learn more.

Left ArrowRight Arrow

47.50024, -111.30081

Hourly Observations for May 7, 2015

Temp ( °F °C ) Dew Point ( °F °C ) Humidity (%) Winds ( mph kmh ) Pressure ( in mb ) Visibility ( mi km ) Precip ( " mm )
12:53 am 00:53 Mostly Clear 38 3.3 26 -3.3 62 62 NE 16 26 30.09 1019 10 16 0.00 0.00
1:53 am 01:53 Mostly Clear 36 2.2 27 -2.8 70 70 NE 17 28 30.11 1020 10 16 0.00 0.00
2:53 am 02:53 Mostly Cloudy 34 1.1 26 -3.3 73 73 NNE 14 22 30.14 1021 10 16 0.00 0.00
3:53 am 03:53 Partly Cloudy 31 -0.6 25 -3.9 79 79 NNE 8 13 30.16 1021 10 16 0.00 0.00
4:53 am 04:53 Mostly Cloudy 28 -2.2 23 -5 81 81 N 6 9 30.18 1022 10 16 0.00 0.00
5:53 am 05:53 Cloudy 32 0 26 -3.3 79 79 NNW 6 9 30.18 1022 10 16 0.00 0.00
6:53 am 06:53 Cloudy 32 0 26 -3.3 79 79 NW 5 7 30.19 1022 10 16 0.00 0.00
7:53 am 07:53 Sunny 35 1.7 26 -3.3 70 70 Calm 30.20 1023 10 16 0.00 0.00
8:53 am 08:53 Mostly Cloudy 36 2.2 26 -3.3 67 67 Calm 30.22 1024 10 16 0.00 0.00
9:53 am 09:53 Cloudy 40 4.4 25 -3.9 55 55 VRB 3 6 30.22 1023 10 16 0.00 0.00
10:53 am 10:53 Mostly Cloudy 41 5 25 -3.9 53 53 undefined N/A 30.22 1023 10 16 0.00 0.00
11:53 am 11:53 Sunny 43 6.1 25 -3.9 49 49 S 6 9 30.20 1023 10 16 0.00 0.00
12:53 pm 12:53 Sunny 47 8.3 25 -3.9 42 42 VRB 5 7 30.17 1022 10 16 0.00 0.00
1:53 pm 13:53 Partly Cloudy 48 8.9 25 -3.9 41 41 ENE 8 13 30.15 1021 10 16 0.00 0.00
2:53 pm 14:53 Sunny 49 9.4 25 -3.9 39 39 N 3 6 30.13 1020 10 16 0.00 0.00
3:53 pm 15:53 Sunny 50 10 26 -3.3 39 39 VRB 3 6 30.12 1020 10 16 0.00 0.00
4:53 pm 16:53 Sunny 51 10.6 27 -2.8 39 39 VRB 7 11 30.11 1020 10 16 0.00 0.00
5:53 pm 17:53 Mostly Sunny 51 10.6 27 -2.8 39 39 NE 10 17 30.09 1019 10 16 0.00 0.00
6:53 pm 18:53 Mostly Sunny 51 10.6 27 -2.8 39 39 VRB 5 7 30.09 1019 10 16 0.00 0.00
7:53 pm 19:53 Mostly Sunny 49 9.4 27 -2.8 43 43 NE 9 15 30.09 1019 10 16 0.00 0.00
8:53 pm 20:53 Clear 45 7.2 27 -2.8 49 49 ENE 10 17 30.11 1020 10 16 0.00 0.00
9:53 pm 21:53 Clear 41 5 28 -2.2 60 60 E 9 15 30.14 1021 10 16 0.00 0.00
11:53 pm 23:53 Clear 40 4.4 29 -1.7 65 65 ESE 8 13 30.12 1020 10 16 0.00 0.00

Powered by AerisWeather